QPF
0.07 0.08 0.07 0.05 0.04 0.02 0.02 0.01 0.01 0.01 0.00 0.01 0.01 0.01 0.01 0.01 0.01 0.01 0.01 0.01 0.01 0.02 0.02 0.02 0.02 0.02 0.02 0.02 0.02 0.02 0.02 0.03 0.04 0.06 0.05 0.03 0.02 0.03 0.03 0.03 0.03 0.04 0.04 0.04
0.08 0.06 0.03 0.02 0.03 0.03 0.03 0.02 0.02 0.01 0.01 0.01 0.01 0.01 0.01 0.01 0.02 0.02 0.02 0.02 0.01 0.02 0.02 0.03 0.03 0.03 0.03 0.04 0.03 0.02 0.01 0.02 0.02 0.03 0.05 0.06 0.05 0.04 0.04 0.03 0.03 0.03 0.04 0.04
0.08 0.04 0.03 0.03 0.05 0.05 0.04 0.03 0.02 0.02 0.01 0.01 0.02 0.02 0.02 0.02 0.02 0.03 0.02 0.03 0.03 0.02 0.03 0.03 0.03 0.04 0.04 0.05 0.05 0.04 0.03 0.02 0.02 0.02 0.03 0.04 0.05 0.05 0.04 0.04 0.04 0.04 0.05 0.05
0.07 0.05 0.03 0.04 0.05 0.05 0.05 0.03 0.02 0.02 0.03 0.03 0.03 0.04 0.03 0.02 0.02 0.03 0.03 0.03 0.03 0.02 0.03 0.03 0.04 0.05 0.05 0.05 0.05 0.06 0.06 0.05 0.04 0.02 0.02 0.02 0.03 0.05 0.05 0.06 0.06 0.06 0.06 0.06
0.05 0.03 0.03 0.04 0.04 0.04 0.04 0.03 0.03 0.04 0.05 0.04 0.03 0.04 0.05 0.03 0.02 0.03 0.03 0.03 0.02 0.01 0.01 0.02 0.02 0.03 0.03 0.04 0.04 0.05 0.07 0.07 0.06 0.05 0.04 0.03 0.03 0.04 0.05 0.06 0.06 0.06 0.06 0.06
0.03 0.03 0.03 0.03 0.03 0.04 0.04 0.05 0.07 0.07 0.09 0.09 0.04 0.04 0.05 0.05 0.03 0.02 0.02 0.02 0.01 0.01 0.01 0.01 0.01 0.01 0.02 0.02 0.02 0.03 0.04 0.05 0.06 0.06 0.06 0.05 0.05 0.04 0.04 0.04 0.05 0.06 0.06 0.06
0.04 0.03 0.03 0.03 0.04 0.05 0.05 0.06 0.10 0.12 0.14 0.11 0.05 0.04 0.05 0.03 0.02 0.01 0.01 0.01 0.01 0.01 0.01 0.00 0.00 0.01 0.01 0.01 0.02 0.02 0.02 0.02 0.03 0.05 0.05 0.05 0.05 0.06 0.06 0.05 0.05 0.05 0.06 0.06
0.05 0.04 0.03 0.02 0.04 0.04 0.04 0.04 0.07 0.08 0.06 0.05 0.04 0.05 0.04 0.02 0.01 0.00 0.00 0.01 0.01 0.01 0.01 0.01 0.00 0.00 0.01 0.01 0.01 0.01 0.01 0.01 0.02 0.03 0.04 0.04 0.05 0.05 0.06 0.06 0.06 0.06 0.06 0.06
0.04 0.04 0.02 0.02 0.02 0.03 0.04 0.05 0.04 0.05 0.03 0.02 0.03 0.04 0.03 0.01 0.01 0.00 0.00 0.00 0.01 0.01 0.00 0.00 0.01 0.01 0.00 0.00 0.00 0.00 0.00 0.01 0.01 0.02 0.02 0.03 0.03 0.04 0.05 0.05 0.05 0.05 0.06 0.06
0.03 0.03 0.02 0.02 0.02 0.03 0.04 0.04 0.05 0.06 0.05 0.03 0.03 0.03 0.02 0.02 0.01 0.01 0.00 0.00 0.00 0.01 0.01 0.00 0.00 0.00 0.00 0.00 0.00 0.00 0.00 0.01 0.01 0.01 0.01 0.02 0.02 0.02 0.03 0.03 0.04 0.04 0.05 0.05
0.03 0.03 0.03 0.02 0.03 0.03 0.03 0.04 0.04 0.05 0.04 0.03 0.02 0.02 0.02 0.02 0.01 0.01 0.01 0.00 0.00 0.00 0.00 0.01 0.00 0.00 0.00 0.00 0.00 0.00 0.00 0.00 0.01 0.01 0.01 0.01 0.01 0.01 0.01 0.02 0.02 0.03 0.03 0.04
0.03 0.05 0.04 0.03 0.02 0.02 0.03 0.03 0.03 0.05 0.04 0.02 0.02 0.03 0.01 0.01 0.01 0.00 0.00 0.01 0.01 0.01 0.01 0.01 0.01 0.00 0.00 0.00 0.00 0.00 0.00 0.00 0.00 0.01 0.01 0.01 0.01 0.02 0.02 0.03 0.04 0.04 0.04 0.04
0.04 0.06 0.05 0.06 0.04 0.03 0.03 0.02 0.02 0.03 0.03 0.03 0.02 0.02 0.01 0.00 0.00 0.00 0.00 0.01 0.01 0.01 0.01 0.01 0.01 0.01 0.00 0.00 0.00 0.00 0.00 0.00 0.01 0.01 0.01 0.01 0.02 0.02 0.02 0.02 0.03 0.03 0.03 0.03
0.03 0.03 0.02 0.04 0.04 0.02 0.02 0.02 0.01 0.03 0.04 0.02 0.02 0.01 0.01 0.01 0.01 0.01 0.01 0.01 0.01 0.01 0.01 0.01 0.01 0.00 0.00 0.00 0.00 0.00 0.00 0.00 0.00 0.00 0.01 0.01 0.01 0.01 0.01 0.01 0.02 0.02 0.02 0.02
0.01 0.01 0.01 0.01 0.01 0.01 0.01 0.01 0.01 0.02 0.02 0.02 0.02 0.01 0.01 0.01 0.01 0.01 0.01 0.01 0.01 0.01 0.02 0.01 0.01 0.01 0.01 0.01 0.00 0.00 0.00 0.00 0.00 0.00 0.01 0.01 0.01 0.01 0.01 0.01 0.01 0.01 0.01 0.01
0.01 0.01 0.00 0.00 0.00 0.01 0.01 0.01 0.01 0.01 0.01 0.01 0.01 0.01 0.01 0.01 0.01 0.01 0.01 0.01 0.01 0.02 0.02 0.02 0.02 0.01 0.01 0.01 0.01 0.01 0.00 0.00 0.00 0.01 0.01 0.00 0.00 0.00 0.00 0.00 0.00 0.00 0.01 0.00
0.02 0.01 0.01 0.01 0.00 0.01 0.01 0.01 0.01 0.01 0.01 0.01 0.01 0.01 0.01 0.00 0.00 0.00 0.01 0.01 0.01 0.01 0.01 0.01 0.01 0.01 0.01 0.01 0.01 0.01 0.01 0.01 0.00 0.00 0.00 0.00 0.00 0.00 0.00 0.00 0.00 0.00 0.01 0.01
0.01 0.01 0.02 0.01 0.01 0.01 0.01 0.00 0.00 0.01 0.01 0.01 0.01 0.01 0.01 0.01 0.01 0.01 0.01 0.01 0.01 0.01 0.01 0.01 0.01 0.01 0.01 0.01 0.00 0.00 0.00 0.00 0.00 0.00 0.00 0.00 0.00 0.00 0.00 0.00 0.00 0.00 0.00 0.01
0.00 0.01 0.02 0.01 0.01 0.00 0.00 0.00 0.00 0.00 0.00 0.00 0.00 0.01 0.01 0.01 0.00 0.01 0.01 0.01 0.01 0.01 0.01 0.01 0.00 0.00 0.00 0.00 0.00 0.00 0.00 0.00 0.00 0.00 0.00 0.00 0.00 0.00 0.00 0.00 0.00 0.00 0.00 0.00
0.00 0.01 0.02 0.01 0.01 0.01 0.00 0.00 0.00 0.00 0.00 0.00 0.00 0.00 0.00 0.00 0.01 0.01 0.01 0.01 0.01 0.00 0.00 0.00 0.00 0.00 0.00 0.00 0.00 0.01 0.01 0.01 0.00 0.00 0.00 0.00 0.00 0.00 0.00 0.00 0.00 0.00 0.00 0.00
0.00 0.01 0.01 0.01 0.01 0.00 0.00 0.00 0.00 0.01 0.00 0.00 0.00 0.00 0.00 0.00 0.01 0.00 0.00 0.00 0.00 0.00 0.00 0.00 0.00 0.00 0.00 0.00 0.00 0.00 0.00 0.00 0.00 0.00 0.00 0.00 0.00 0.00 0.00 0.00 0.00 0.00 0.00 0.00
0.00 0.00 0.01 0.01 0.01 0.00 0.00 0.00 0.00 0.00 0.00 0.00 0.00 0.00 0.00 0.00 0.00 0.00 0.00 0.00 0.00 0.00 0.00 0.00 0.00 0.00 0.00 0.00 0.00 0.00 0.00 0.00 0.00 0.00 0.00 0.00 0.00 0.00 0.00 0.00 0.00 0.00 0.00 0.00
0.00 0.00 0.00 0.01 0.00 0.00 0.00 0.00 0.00 0.00 0.00 0.00 0.00 0.00 0.00 0.00 0.00 0.00 0.00 0.00 0.00 0.00 0.00 0.00 0.00 0.00 0.00 0.00 0.00 0.00 0.00 0.00 0.00 0.00 0.00 0.00 0.00 0.00 0.00 0.00 0.00 0.00 0.00 0.01
0.00 0.00 0.00 0.00 0.00 0.00 0.00 0.00 0.00 0.00 0.00 0.00 0.00 0.00 0.00 0.00 0.00 0.00 0.00 0.00 0.00 0.00 0.00 0.00 0.00 0.00 0.00 0.00 0.00 0.00 0.00 0.00 0.00 0.00 0.00 0.00 0.00 0.00 0.00 0.00 0.00 0.00 0.00 0.01
0.00 0.00 0.00 0.00 0.00 0.00 0.00 0.00 0.00 0.00 0.00 0.00 0.00 0.00 0.00 0.00 0.00 0.00 0.00 0.00 0.00 0.00 0.00 0.00 0.00 0.00 0.00 0.00 0.00 0.00 0.00 0.00 0.00 0.00 0.00 0.00 0.00 0.00 0.00 0.00 0.00 0.00 0.00 0.01
0.00 0.00 0.00 0.00 0.00 0.00 0.00 0.00 0.00 0.00 0.00 0.00 0.00 0.00 0.00 0.00 0.00 0.00 0.00 0.00 0.00 0.00 0.00 0.00 0.00 0.00 0.00 0.00 0.00 0.00 0.00 0.00 0.00 0.00 0.00 0.00 0.00 0.00 0.00 0.01 0.01 0.01 0.01 0.01
MSLP
1021.83 1021.75 1021.65 1021.50 1021.27 1020.93 1020.47 1019.90 1019.23 1018.50 1017.74 1017.02 1016.39 1015.88 1015.54 1015.39 1015.42 1015.61 1015.94 1016.34 1016.79 1017.23 1017.64 1017.99 1018.26 1018.45 1018.56 1018.59 1018.53 1018.40 1018.18 1017.90 1017.56 1017.17 1016.78 1016.40 1016.04 1015.74 1015.50 1015.32 1015.20 1015.13 1015.09 1015.09
1022.32 1022.23 1022.07 1021.83 1021.49 1021.05 1020.51 1019.90 1019.26 1018.63 1018.04 1017.53 1017.14 1016.88 1016.77 1016.80 1016.95 1017.19 1017.49 1017.81 1018.13 1018.42 1018.67 1018.86 1019.01 1019.11 1019.16 1019.17 1019.13 1019.03 1018.87 1018.64 1018.35 1018.01 1017.64 1017.25 1016.86 1016.50 1016.17 1015.88 1015.63 1015.43 1015.26 1015.13
1022.90 1022.76 1022.52 1022.18 1021.73 1021.20 1020.61 1020.00 1019.43 1018.94 1018.54 1018.28 1018.14 1018.13 1018.23 1018.41 1018.65 1018.90 1019.13 1019.33 1019.49 1019.59 1019.65 1019.67 1019.66 1019.65 1019.63 1019.61 1019.57 1019.51 1019.41 1019.26 1019.06 1018.79 1018.48 1018.12 1017.74 1017.35 1016.97 1016.60 1016.26 1015.95 1015.66 1015.41
1023.58 1023.37 1023.04 1022.60 1022.06 1021.46 1020.85 1020.29 1019.82 1019.48 1019.28 1019.24 1019.32 1019.51 1019.77 1020.05 1020.32 1020.53 1020.67 1020.73 1020.71 1020.62 1020.49 1020.33 1020.19 1020.06 1019.97 1019.92 1019.88 1019.86 1019.82 1019.75 1019.63 1019.45 1019.21 1018.92 1018.57 1018.19 1017.80 1017.40 1017.00 1016.61 1016.24 1015.89
1024.40 1024.10 1023.67 1023.14 1022.53 1021.90 1021.31 1020.81 1020.45 1020.26 1020.23 1020.36 1020.60 1020.92 1021.25 1021.55 1021.79 1021.92 1021.94 1021.85 1021.67 1021.42 1021.14 1020.85 1020.59 1020.38 1020.24 1020.16 1020.12 1020.12 1020.13 1020.12 1020.08 1019.97 1019.81 1019.57 1019.28 1018.94 1018.56 1018.16 1017.74 1017.32 1016.90 1016.49
1025.33 1024.94 1024.43 1023.83 1023.19 1022.57 1022.02 1021.60 1021.34 1021.27 1021.36 1021.59 1021.90 1022.24 1022.56 1022.81 1022.95 1022.97 1022.86 1022.64 1022.34 1021.98 1021.60 1021.24 1020.93 1020.68 1020.50 1020.40 1020.36 1020.37 1020.40 1020.42 1020.41 1020.36 1020.25 1020.07 1019.83 1019.53 1019.19 1018.81 1018.40 1017.98 1017.55 1017.12
1026.35 1025.89 1025.32 1024.69 1024.05 1023.47 1022.98 1022.65 1022.48 1022.48 1022.63 1022.87 1023.16 1023.44 1023.66 1023.79 1023.79 1023.68 1023.45 1023.13 1022.75 1022.35 1021.95 1021.58 1021.27 1021.02 1020.85 1020.74 1020.69 1020.68 1020.69 1020.71 1020.70 1020.66 1020.57 1020.42 1020.21 1019.95 1019.64 1019.29 1018.92 1018.52 1018.11 1017.69
1027.41 1026.89 1026.31 1025.69 1025.10 1024.58 1024.18 1023.92 1023.82 1023.85 1023.98 1024.16 1024.35 1024.49 1024.55 1024.51 1024.36 1024.11 1023.79 1023.41 1023.02 1022.64 1022.28 1021.96 1021.70 1021.49 1021.33 1021.22 1021.15 1021.10 1021.06 1021.03 1020.98 1020.90 1020.79 1020.64 1020.44 1020.19 1019.90 1019.59 1019.25 1018.88 1018.51 1018.11
1028.42 1027.91 1027.36 1026.81 1026.29 1025.87 1025.55 1025.36 1025.28 1025.30 1025.36 1025.43 1025.45 1025.41 1025.28 1025.05 1024.75 1024.39 1024.01 1023.63 1023.27 1022.95 1022.68 1022.46 1022.28 1022.12 1021.99 1021.87 1021.75 1021.64 1021.53 1021.41 1021.28 1021.13 1020.96 1020.77 1020.54 1020.29 1020.01 1019.70 1019.38 1019.04 1018.70 1018.34
1029.36 1028.90 1028.43 1027.97 1027.57 1027.25 1027.01 1026.86 1026.79 1026.74 1026.70 1026.61 1026.46 1026.22 1025.90 1025.51 1025.09 1024.65 1024.25 1023.90 1023.61 1023.39 1023.23 1023.11 1023.01 1022.90 1022.78 1022.63 1022.46 1022.26 1022.05 1021.82 1021.59 1021.35 1021.10 1020.84 1020.56 1020.27 1019.97 1019.65 1019.33 1019.00 1018.68 1018.34
1030.19 1029.83 1029.48 1029.15 1028.86 1028.64 1028.46 1028.33 1028.21 1028.09 1027.91 1027.66 1027.33 1026.92 1026.44 1025.94 1025.44 1024.98 1024.60 1024.31 1024.11 1023.99 1023.92 1023.88 1023.83 1023.75 1023.61 1023.42 1023.17 1022.88 1022.56 1022.22 1021.88 1021.54 1021.20 1020.86 1020.52 1020.17 1019.82 1019.48 1019.13 1018.79 1018.45 1018.13
1030.92 1030.70 1030.49 1030.29 1030.11 1029.95 1029.80 1029.65 1029.46 1029.22 1028.90 1028.50 1028.02 1027.48 1026.91 1026.34 1025.83 1025.40 1025.07 1024.85 1024.73 1024.69 1024.69 1024.69 1024.65 1024.56 1024.38 1024.12 1023.79 1023.41 1022.98 1022.55 1022.11 1021.68 1021.25 1020.84 1020.43 1020.02 1019.62 1019.21 1018.82 1018.45 1018.09 1017.75
1031.60 1031.53 1031.45 1031.36 1031.25 1031.12 1030.95 1030.73 1030.43 1030.06 1029.61 1029.08 1028.49 1027.87 1027.26 1026.70 1026.22 1025.85 1025.60 1025.45 1025.40 1025.40 1025.42 1025.41 1025.35 1025.20 1024.95 1024.62 1024.21 1023.74 1023.24 1022.73 1022.23 1021.73 1021.25 1020.77 1020.31 1019.84 1019.37 1018.92 1018.47 1018.05 1017.65 1017.28
1032.27 1032.34 1032.37 1032.34 1032.25 1032.09 1031.84 1031.50 1031.07 1030.56 1029.97 1029.34 1028.69 1028.05 1027.46 1026.96 1026.56 1026.27 1026.10 1026.01 1026.00 1026.00 1026.00 1025.94 1025.80 1025.57 1025.25 1024.84 1024.37 1023.85 1023.30 1022.76 1022.22 1021.70 1021.18 1020.67 1020.16 1019.64 1019.13 1018.61 1018.11 1017.64 1017.19 1016.79
1032.97 1033.13 1033.22 1033.21 1033.08 1032.82 1032.45 1031.95 1031.36 1030.69 1029.99 1029.28 1028.61 1027.99 1027.47 1027.06 1026.76 1026.58 1026.48 1026.44 1026.43 1026.40 1026.33 1026.19 1025.96 1025.64 1025.23 1024.77 1024.25 1023.72 1023.17 1022.63 1022.10 1021.58 1021.06 1020.53 1019.99 1019.44 1018.89 1018.33 1017.78 1017.26 1016.78 1016.35
1033.71 1033.92 1034.00 1033.94 1033.70 1033.31 1032.76 1032.08 1031.31 1030.50 1029.70 1028.95 1028.28 1027.72 1027.29 1027.00 1026.81 1026.72 1026.69 1026.67 1026.63 1026.54 1026.38 1026.14 1025.81 1025.40 1024.94 1024.44 1023.92 1023.40 1022.89 1022.39 1021.89 1021.40 1020.89 1020.37 1019.81 1019.24 1018.65 1018.06 1017.48 1016.93 1016.43 1015.97
1034.44 1034.63 1034.66 1034.48 1034.11 1033.53 1032.79 1031.93 1031.00 1030.07 1029.19 1028.42 1027.78 1027.30 1026.98 1026.80 1026.72 1026.70 1026.71 1026.68 1026.60 1026.44 1026.18 1025.84 1025.42 1024.94 1024.45 1023.94 1023.45 1022.97 1022.52 1022.08 1021.64 1021.18 1020.69 1020.16 1019.60 1019.01 1018.40 1017.79 1017.20 1016.64 1016.12 1015.65
1035.07 1035.20 1035.11 1034.80 1034.26 1033.50 1032.58 1031.56 1030.50 1029.48 1028.56 1027.80 1027.22 1026.83 1026.61 1026.53 1026.53 1026.57 1026.58 1026.54 1026.40 1026.15 1025.80 1025.37 1024.88 1024.37 1023.86 1023.37 1022.93 1022.52 1022.13 1021.75 1021.36 1020.93 1020.45 1019.92 1019.34 1018.73 1018.10 1017.47 1016.87 1016.31 1015.80 1015.33
1035.50 1035.52 1035.30 1034.83 1034.13 1033.23 1032.17 1031.03 1029.90 1028.84 1027.93 1027.21 1026.70 1026.39 1026.26 1026.26 1026.32 1026.38 1026.39 1026.30 1026.10 1025.77 1025.35 1024.85 1024.32 1023.79 1023.29 1022.84 1022.45 1022.10 1021.77 1021.44 1021.07 1020.65 1020.16 1019.61 1019.00 1018.35 1017.70 1017.06 1016.46 1015.90 1015.40 1014.94
1035.62 1035.49 1035.14 1034.54 1033.72 1032.71 1031.58 1030.40 1029.26 1028.23 1027.37 1026.72 1026.29 1026.07 1026.02 1026.07 1026.16 1026.22 1026.20 1026.06 1025.79 1025.40 1024.91 1024.37 1023.82 1023.29 1022.81 1022.41 1022.06 1021.76 1021.46 1021.14 1020.77 1020.33 1019.81 1019.20 1018.54 1017.85 1017.17 1016.51 1015.90 1015.35 1014.86 1014.42
1035.32 1035.06 1034.58 1033.89 1033.00 1031.96 1030.84 1029.69 1028.62 1027.67 1026.91 1026.37 1026.03 1025.89 1025.89 1025.98 1026.07 1026.11 1026.05 1025.86 1025.53 1025.09 1024.56 1024.00 1023.43 1022.92 1022.46 1022.09 1021.77 1021.48 1021.19 1020.86 1020.45 1019.96 1019.37 1018.70 1017.98 1017.24 1016.50 1015.82 1015.20 1014.65 1014.16 1013.72
1034.58 1034.19 1033.63 1032.89 1032.00 1031.00 1029.96 1028.93 1027.98 1027.18 1026.55 1026.13 1025.90 1025.83 1025.88 1025.97 1026.05 1026.06 1025.95 1025.71 1025.34 1024.86 1024.31 1023.73 1023.17 1022.66 1022.23 1021.86 1021.54 1021.25 1020.93 1020.55 1020.09 1019.53 1018.87 1018.12 1017.33 1016.52 1015.74 1015.02 1014.37 1013.80 1013.30 1012.85
1033.39 1032.91 1032.30 1031.57 1030.74 1029.85 1028.96 1028.10 1027.34 1026.72 1026.26 1025.97 1025.84 1025.84 1025.91 1026.00 1026.06 1026.03 1025.88 1025.60 1025.19 1024.69 1024.12 1023.55 1022.99 1022.49 1022.06 1021.69 1021.35 1021.02 1020.65 1020.22 1019.69 1019.05 1018.31 1017.50 1016.64 1015.77 1014.94 1014.17 1013.49 1012.88 1012.35 1011.86
1031.83 1031.29 1030.68 1030.00 1029.29 1028.57 1027.88 1027.24 1026.69 1026.27 1025.98 1025.83 1025.79 1025.84 1025.93 1026.01 1026.04 1025.97 1025.78 1025.47 1025.04 1024.53 1023.97 1023.40 1022.85 1022.35 1021.91 1021.52 1021.15 1020.77 1020.34 1019.84 1019.24 1018.54 1017.74 1016.87 1015.97 1015.05 1014.18 1013.36 1012.63 1011.97 1011.38 1010.84
1030.01 1029.45 1028.88 1028.31 1027.76 1027.24 1026.77 1026.37 1026.05 1025.83 1025.71 1025.68 1025.73 1025.81 1025.90 1025.96 1025.95 1025.84 1025.62 1025.28 1024.85 1024.34 1023.78 1023.22 1022.68 1022.18 1021.72 1021.29 1020.88 1020.45 1019.98 1019.42 1018.77 1018.03 1017.20 1016.30 1015.36 1014.42 1013.51 1012.65 1011.86 1011.13 1010.47 1009.85
1028.08 1027.53 1027.04 1026.62 1026.25 1025.96 1025.73 1025.57 1025.47 1025.44 1025.47 1025.54 1025.64 1025.74 1025.82 1025.85 1025.79 1025.64 1025.39 1025.03 1024.59 1024.08 1023.53 1022.97 1022.43 1021.92 1021.44 1020.98 1020.53 1020.06 1019.54 1018.95 1018.28 1017.52 1016.68 1015.78 1014.84 1013.89 1012.96 1012.06 1011.21 1010.42 1009.67 1008.96
Thickness
5514 5514 5515 5522 5529 5536 5541 5545 5551 5560 5569 5571 5575 5582 5590 5599 5603 5606 5609 5613 5616 5621 5627 5631 5634 5636 5638 5640 5641 5642 5642 5643 5643 5644 5644 5645 5645 5646 5646 5647 5647 5647 5646 5646
5501 5502 5510 5517 5522 5524 5526 5529 5536 5546 5555 5558 5563 5570 5580 5587 5592 5594 5597 5601 5604 5608 5612 5616 5620 5622 5624 5626 5628 5630 5632 5633 5634 5635 5637 5638 5639 5639 5639 5639 5640 5640 5640 5640
5486 5495 5503 5506 5508 5511 5516 5518 5523 5527 5538 5547 5549 5556 5567 5576 5582 5585 5587 5589 5592 5596 5599 5602 5605 5608 5610 5612 5615 5618 5620 5623 5624 5625 5627 5628 5629 5630 5630 5630 5631 5632 5633 5633
5479 5487 5491 5493 5497 5501 5505 5513 5515 5518 5518 5525 5536 5532 5554 5562 5566 5569 5572 5573 5576 5581 5585 5588 5591 5594 5596 5599 5602 5605 5608 5611 5613 5615 5615 5616 5617 5619 5620 5620 5621 5623 5624 5625
5471 5478 5480 5483 5488 5493 5497 5505 5507 5510 5509 5510 5522 5520 5534 5551 5551 5554 5558 5560 5563 5567 5571 5574 5577 5580 5583 5586 5589 5591 5594 5597 5600 5602 5603 5604 5605 5607 5607 5608 5609 5611 5613 5614
5468 5473 5475 5478 5483 5488 5491 5493 5497 5499 5498 5493 5513 5511 5518 5534 5540 5543 5546 5548 5550 5554 5557 5560 5563 5567 5569 5572 5575 5577 5580 5582 5585 5587 5589 5590 5591 5592 5593 5594 5595 5597 5599 5601
5460 5466 5470 5473 5472 5478 5480 5476 5471 5473 5476 5486 5510 5505 5507 5523 5530 5533 5533 5535 5537 5539 5541 5544 5547 5550 5554 5557 5559 5562 5565 5568 5570 5572 5573 5574 5576 5578 5579 5580 5581 5582 5584 5586
5445 5451 5463 5466 5466 5466 5470 5472 5462 5463 5473 5483 5496 5495 5501 5513 5518 5521 5522 5522 5523 5525 5527 5529 5531 5534 5537 5540 5543 5547 5550 5552 5554 5556 5557 5559 5561 5562 5563 5564 5566 5567 5568 5570
5440 5446 5460 5463 5466 5465 5463 5463 5469 5462 5460 5463 5479 5490 5495 5503 5506 5508 5508 5508 5506 5509 5511 5513 5516 5519 5522 5524 5527 5531 5533 5535 5537 5539 5541 5543 5544 5545 5547 5548 5549 5550 5551 5553
5437 5437 5451 5458 5461 5461 5461 5461 5456 5450 5448 5454 5474 5482 5484 5488 5493 5493 5492 5492 5492 5494 5496 5498 5500 5503 5505 5508 5511 5514 5516 5518 5520 5522 5524 5526 5527 5528 5529 5531 5532 5533 5534 5536
5434 5429 5441 5449 5448 5449 5452 5452 5452 5450 5449 5450 5458 5472 5485 5484 5483 5479 5478 5478 5478 5479 5481 5483 5484 5487 5489 5492 5494 5496 5498 5500 5502 5504 5506 5508 5509 5511 5513 5513 5514 5515 5517 5518
5431 5429 5429 5442 5448 5451 5451 5450 5446 5435 5434 5448 5452 5460 5477 5477 5473 5470 5467 5466 5466 5467 5467 5468 5469 5470 5472 5473 5476 5478 5479 5481 5483 5485 5487 5489 5491 5493 5494 5495 5496 5497 5499 5501
5427 5421 5421 5434 5437 5440 5440 5441 5441 5437 5433 5435 5437 5451 5467 5464 5460 5459 5456 5454 5454 5454 5455 5455 5454 5455 5456 5457 5458 5460 5461 5463 5465 5467 5469 5471 5472 5473 5475 5477 5478 5480 5481 5483
5426 5414 5413 5420 5426 5428 5430 5433 5435 5432 5424 5429 5441 5448 5453 5451 5449 5448 5446 5444 5442 5441 5441 5441 5440 5440 5440 5441 5442 5443 5445 5446 5448 5450 5451 5453 5453 5454 5456 5457 5459 5461 5462 5464
5417 5408 5408 5413 5420 5422 5424 5427 5430 5428 5430 5427 5438 5441 5445 5443 5441 5440 5439 5436 5434 5432 5431 5430 5428 5426 5426 5427 5428 5429 5429 5430 5431 5432 5433 5433 5434 5436 5437 5438 5440 5442 5443 5444
5408 5401 5401 5402 5414 5417 5417 5423 5425 5426 5429 5430 5432 5434 5441 5438 5436 5432 5430 5429 5426 5423 5421 5418 5416 5414 5413 5413 5413 5413 5413 5414 5415 5415 5415 5416 5416 5418 5419 5419 5421 5423 5424 5425
5398 5391 5392 5398 5403 5404 5403 5421 5424 5426 5430 5429 5427 5431 5431 5428 5427 5424 5421 5419 5415 5412 5410 5406 5404 5402 5401 5399 5399 5398 5398 5398 5398 5398 5398 5398 5399 5400 5400 5401 5403 5404 5405 5407
5388 5386 5385 5387 5390 5392 5424 5432 5431 5427 5426 5427 5427 5426 5424 5420 5416 5414 5412 5409 5405 5401 5398 5394 5392 5390 5388 5387 5385 5384 5383 5382 5382 5382 5382 5381 5381 5382 5382 5383 5383 5384 5385 5388
5392 5386 5382 5379 5381 5396 5420 5424 5422 5418 5418 5423 5420 5418 5414 5409 5406 5403 5401 5396 5392 5389 5386 5383 5380 5378 5375 5373 5371 5370 5368 5366 5366 5365 5365 5364 5364 5364 5365 5365 5365 5366 5367 5369
5388 5384 5376 5377 5376 5381 5418 5417 5416 5412 5403 5415 5413 5408 5403 5397 5392 5392 5389 5385 5381 5378 5375 5371 5368 5365 5362 5359 5357 5355 5353 5351 5349 5348 5348 5347 5347 5346 5347 5347 5347 5348 5348 5350
5371 5372 5371 5371 5371 5388 5412 5408 5404 5391 5399 5406 5404 5399 5393 5388 5383 5380 5378 5374 5370 5367 5363 5360 5356 5352 5348 5344 5341 5339 5337 5335 5333 5331 5331 5330 5329 5329 5329 5329 5330 5330 5331 5332
5373 5369 5367 5368 5366 5382 5405 5398 5394 5396 5399 5397 5393 5389 5384 5379 5375 5371 5366 5362 5358 5355 5351 5347 5342 5339 5334 5330 5326 5324 5321 5319 5316 5314 5314 5313 5312 5312 5312 5311 5312 5312 5312 5313
5382 5387 5385 5383 5391 5403 5401 5398 5396 5393 5390 5387 5382 5379 5374 5370 5365 5361 5356 5352 5348 5344 5339 5334 5329 5325 5321 5315 5311 5308 5306 5302 5299 5297 5296 5296 5295 5295 5295 5294 5294 5294 5294 5295
5386 5388 5384 5381 5392 5396 5394 5392 5389 5385 5381 5378 5373 5368 5364 5359 5355 5350 5345 5340 5335 5331 5325 5320 5315 5310 5307 5301 5297 5292 5289 5285 5282 5281 5281 5280 5280 5280 5280 5279 5278 5278 5278 5278
5387 5377 5373 5373 5384 5386 5389 5384 5382 5377 5372 5366 5362 5357 5352 5346 5342 5337 5332 5328 5323 5318 5312 5305 5299 5295 5291 5287 5281 5277 5273 5269 5267 5266 5266 5266 5265 5264 5264 5263 5262 5261 5262 5261
5386 5380 5374 5381 5387 5380 5383 5382 5375 5368 5362 5356 5350 5345 5341 5335 5330 5325 5320 5315 5309 5304 5298 5291 5285 5280 5276 5271 5267 5262 5258 5254 5252 5253 5253 5251 5250 5249 5248 5247 5247 5247 5246 5246